{"data":{"norad_id":60729,"epoch":"2026-05-25T03:08:17.346912Z","epoch_age_seconds":59838,"freshness":"FRESH","line1":"1 60729U 24152K   26145.13075633  .00000412  00000+0  82596-5 0  9995","line2":"2 60729  53.1586  99.2218 0000949  78.0583 282.0541 15.69710261100975","mean_motion":15.69710261,"eccentricity":9.49e-5,"inclination_deg":53.1586,"raan_deg":99.2218,"arg_perigee_deg":78.0583,"mean_anomaly_deg":282.0541,"bstar":8.2596e-6,"rev_number":10097,"period_min":91.736674963355,"perigee_km":359.08658033875,"apogee_km":360.36542673682,"semimajor_km":6737.8630035378,"source":"CELESTRAK","updated_at":"2026-05-25T13:38:19.309372Z"}}